User: anonymous   Login
Location: Unspecified
(0.0000°N, 0.0000°E)
Time: 09:19:09
(UTC+00:00)
Language:

GONETS M 08 (M18) - Orbit

View from above orbital plane
View from above orbital plane
View from above satellite
View from above satellite

Ground track
Ground track

The orbit data is extracted from the following two-line orbital elements,

1 40061U 14036A   17268.89254251 +.00000010 +00000-0 +00000-0 0  9996
2 40061 082.5102 126.5610 0028313 260.8662 098.9215 12.42873083146631
Epoch (UTC): 25 September 2017 21:25:15
Eccentricity: 0.0028313
inclination: 82.5102°
perigee height: 1472 km
apogee height: 1517 km
right ascension of ascending node: 126.5610°
argument of perigee: 260.8662°
revolutions per day: 12.42873083
mean anomaly at epoch: 98.9215°
orbit number at epoch: 14663

The dashed part of the orbit path shows where the satellite is in the earth's shadow,  

DLR